TSC5015 EVRA-CYOW

Flight info

Callsign TSC5015
Flight time N/A
Altitude 34000
Route LAPSA Y130 MILTA DCT REPKU DCT LAPOT P600 KLONN/N0471F360 DCT GINGA DCT GOMUP DCT SUNOT/M082F370 NATA HOIST/N0472F380 N750B YBC Q910 IMORI Q921 AGLUK Q941 TAMKO Q852 MEBOK DCT ALSET RIVER4
Aircraft A333/H-SADE1E2E3GHIJ1J3J5M1P2RWXY/LB2D1

Departure

Time 2026-05-05 12:32
Airport Riga International Airport (EVRA)

Arrival

Time N/A
Airport Ottawa Macdonald-Cartier International Airport (CYOW)
Time Latitude Longitude Altitude Speed Heading
2026-05-05 12:01 56.92436 23.97693 41 ft 0 kts
2026-05-05 12:19 56.92435 23.97692 41 ft 1 kts
2026-05-05 12:19 56.92421 23.97690 42 ft 2 kts
2026-05-05 12:19 56.92406 23.97687 42 ft 2 kts
2026-05-05 12:20 56.92397 23.97686 42 ft 1 kts
2026-05-05 12:20 56.92381 23.97689 42 ft 2 kts 336°
2026-05-05 12:20 56.92369 23.97702 43 ft 2 kts 315°
2026-05-05 12:20 56.92360 23.97725 43 ft 2 kts 291°
2026-05-05 12:21 56.92358 23.97743 43 ft 0 kts 275°
2026-05-05 12:21 56.92357 23.97750 43 ft 0 kts 275°
2026-05-05 12:24 56.92358 23.97745 43 ft 1 kts 274°
2026-05-05 12:24 56.92359 23.97711 43 ft 4 kts 273°
2026-05-05 12:25 56.92363 23.97625 42 ft 9 kts 275°
2026-05-05 12:25 56.92405 23.97529 41 ft 12 kts 347°
2026-05-05 12:25 56.92501 23.97530 40 ft 15 kts
2026-05-05 12:25 56.92590 23.97522 40 ft 11 kts
2026-05-05 12:26 56.92680 23.97546 40 ft 14 kts 10°
2026-05-05 12:26 56.92787 23.97577 40 ft 17 kts
2026-05-05 12:26 56.92914 23.97600 40 ft 18 kts
2026-05-05 12:26 56.93037 23.97619 40 ft 17 kts
2026-05-05 12:27 56.93154 23.97621 40 ft 14 kts 345°
2026-05-05 12:27 56.93220 23.97615 40 ft 8 kts 15°
2026-05-05 12:27 56.93265 23.97663 42 ft 6 kts 38°
2026-05-05 12:27 56.93298 23.97698 43 ft 5 kts 19°
2026-05-05 12:28 56.93322 23.97706 43 ft 0 kts
2026-05-05 12:28 56.93323 23.97706 43 ft 0 kts
2026-05-05 12:29 56.93325 23.97706 43 ft 1 kts
2026-05-05 12:29 56.93351 23.97709 43 ft 5 kts
2026-05-05 12:29 56.93396 23.97675 43 ft 8 kts 321°
2026-05-05 12:30 56.93443 23.97583 43 ft 11 kts 312°
2026-05-05 12:30 56.93477 23.97464 43 ft 10 kts 280°
2026-05-05 12:30 56.93476 23.97336 43 ft 7 kts 238°
2026-05-05 12:30 56.93440 23.97304 42 ft 5 kts 192°
2026-05-05 12:31 56.93401 23.97293 41 ft 0 kts 186°
2026-05-05 12:31 56.93389 23.97291 41 ft 7 kts 186°
2026-05-05 12:31 56.93122 23.97245 40 ft 69 kts 185°
2026-05-05 12:31 56.92456 23.97136 40 ft 122 kts 186°
2026-05-05 12:32 56.91451 23.96970 41 ft 167 kts 186°
2026-05-05 12:32 56.90978 23.96893 61 ft 180 kts 187°
2026-05-05 12:32 56.89095 23.96568 606 ft 193 kts 188°
2026-05-05 12:32 56.87768 23.96334 1329 ft 188 kts 189°
2026-05-05 12:33 56.86473 23.96109 1928 ft 184 kts 189°
2026-05-05 12:33 56.85211 23.95713 2304 ft 188 kts 211°
2026-05-05 12:33 56.84203 23.94174 2596 ft 196 kts 235°
2026-05-05 12:33 56.83347 23.92110 2892 ft 211 kts 235°
2026-05-05 12:34 56.82453 23.89963 3349 ft 218 kts 234°
2026-05-05 12:34 56.81492 23.87681 3643 ft 234 kts 234°
2026-05-05 12:34 56.80459 23.85259 3944 ft 249 kts 234°
2026-05-05 12:34 56.79390 23.82766 4483 ft 254 kts 233°
2026-05-05 12:35 56.78344 23.80123 5160 ft 254 kts 245°
2026-05-05 12:35 56.77982 23.77033 5743 ft 256 kts 273°
2026-05-05 12:35 56.78468 23.73947 6337 ft 261 kts 298°
2026-05-05 12:35 56.79475 23.71172 6942 ft 263 kts 301°
2026-05-05 12:36 56.80497 23.68388 7517 ft 264 kts 300°
2026-05-05 12:36 56.81503 23.65618 8119 ft 265 kts 300°
2026-05-05 12:36 56.82514 23.62818 8709 ft 266 kts 299°
2026-05-05 12:36 56.83525 23.60006 9254 ft 266 kts 298°
2026-05-05 12:37 56.84529 23.57214 9830 ft 267 kts 298°
2026-05-05 12:37 56.85601 23.54387 10296 ft 275 kts 300°
2026-05-05 12:37 56.86735 23.51487 10525 ft 288 kts 301°
2026-05-05 12:37 56.87928 23.48450 10780 ft 302 kts 301°
2026-05-05 12:38 56.89171 23.45286 11008 ft 315 kts 301°
2026-05-05 12:38 56.90469 23.41985 11345 ft 324 kts 301°
2026-05-05 12:38 56.91782 23.38643 11860 ft 327 kts 301°
2026-05-05 12:38 56.93115 23.35254 12460 ft 329 kts 302°
2026-05-05 12:39 56.94605 23.32029 13027 ft 335 kts 308°
2026-05-05 12:39 56.96357 23.29113 13601 ft 342 kts 315°
2026-05-05 12:39 56.98260 23.26517 14170 ft 345 kts 317°
2026-05-05 12:39 57.00214 23.23950 14710 ft 348 kts 318°
2026-05-05 12:40 57.02176 23.21382 15240 ft 351 kts 318°
2026-05-05 12:40 57.04137 23.18811 15755 ft 354 kts 317°
2026-05-05 12:40 57.06148 23.16162 16298 ft 356 kts 317°
2026-05-05 12:40 57.08178 23.13485 16904 ft 358 kts 317°
2026-05-05 12:41 57.10195 23.10818 17425 ft 360 kts 317°
2026-05-05 12:41 57.12264 23.08076 17922 ft 362 kts 317°
2026-05-05 12:41 57.14321 23.05344 18419 ft 364 kts 317°
2026-05-05 12:41 57.16363 23.02627 18947 ft 366 kts 317°
2026-05-05 12:42 57.18454 22.99844 19460 ft 369 kts 317°
2026-05-05 12:42 57.20524 22.97084 19901 ft 372 kts 316°
2026-05-05 12:42 57.22521 22.94093 20346 ft 369 kts 309°
2026-05-05 12:42 57.24242 22.90711 20807 ft 365 kts 302°
2026-05-05 12:43 57.25727 22.86909 21253 ft 363 kts 297°
2026-05-05 12:43 57.27091 22.82989 21677 ft 364 kts 296°
2026-05-05 12:43 57.28446 22.79018 22090 ft 366 kts 296°
2026-05-05 12:43 57.29809 22.75025 22492 ft 369 kts 296°
2026-05-05 12:44 57.31191 22.70981 22913 ft 371 kts 296°
2026-05-05 12:44 57.32567 22.66956 23319 ft 372 kts 296°
2026-05-05 12:44 57.33933 22.62854 23696 ft 373 kts 294°
2026-05-05 12:44 57.35213 22.58701 24058 ft 374 kts 293°